Regional Weather Roundup
Issued by NWS

Home | Current Version | Previous Version | Graphics & Text | Print | Product List | Glossary On
Versions: 1 2 3 4 5 6 7 8 9 10 11 12 13 14 15 16 17 18 19 20 21 22 23 24 25 26 27 28 29 30 31 32 33 34 35 36 37 38 39 40 41 42 43 44 45 46 47 48 49 50
483
ASUS45 KBOU 221307
RWRCO

WEATHER ROUNDUP FOR COLORADO
NATIONAL WEATHER SERVICE DENVER/BOULDER CO
700 AM MDT FRI SEP 22 2017

NOTE: "FAIR" INDICATES FEW OR NO CLOUDS BELOW 12000 FEET WITH NO
SIGNIFICANT WEATHER AND/OR OBSTRUCTIONS TO VISIBILITY.

COZ001>005-013-030-031-221400-
...NORTHWEST COLORADO...

CITY           SKY/WX    TMP DP  RH WIND       PRES   REMARKS
CRAIG          FAIR      58  25  28 SW7       29.82S
HAYDEN         FAIR      54  27  35 N5        29.86S
MEEKER         FAIR      56  30  37 CALM      29.84R
RABBIT EARS PA FAIR      43  28  56 SW17G31   30.05F
STEAMBOAT SPGS FAIR      46  27  47 E3        29.86F
WALDEN         FAIR      50  25  37 S12       29.95S
$$

COZ006>008-011-221400-
...WEST CENTRAL VALLEYS...

CITY           SKY/WX    TMP DP  RH WIND       PRES   REMARKS
GRAND JUNCTION FAIR      67  34  29 S12G21    29.78R
MONTROSE       MOCLDY    63  40  42 S21G31    29.87R
EAGLE          NOT AVBL
RIFLE          LGT RAIN  63  41  44 S16G25    29.83R
DELTA          FAIR      66  36  32 S6        29.84S
NUCLA          MOCLDY    63  30  29 S17G30    29.90S
$$

COZ017>023-064>068-221400-
...SOUTHWEST COLORADO...

CITY           SKY/WX    TMP DP  RH WIND       PRES   REMARKS
DURANGO        CLOUDY    54  38  54 CALM      30.00R
CORTEZ         MOCLDY    63  38  39 S10       29.91S
PAGOSA SPRINGS MOCLDY    49  35  58 CALM      30.07S
TELLURIDE      LGT RAIN  52  35  52 S9G28     30.05R
WOLF CREEK PAS CLOUDY    36  32  87 SW22G38   30.29R
$$

COZ009-010-012-014-032>034-037-058>063-221400-
...CENTRAL COLORADO...

CITY           SKY/WX    TMP DP  RH WIND       PRES   REMARKS
ASPEN          CLOUDY    47  31  53 S5        29.94S
BUENA VISTA    MOCLDY    51  32  47 CALM      30.00S
COPPER MTN     FAIR      45  21  39 S16G28    30.18S
BERTHOUD PASS  FAIR      36  28  75 W24G36    30.19S
COTTONWOOD PAS FAIR      55  30  38 CALM      30.10S
GUNNISON       FAIR      39  29  67 CALM      29.99R
KREMMLING      FAIR      34  27  75 CALM      29.96R
LEADVILLE      FAIR      47  22  37 SE13G18   30.06F
MONARCH PASS   MOCLDY    37  30  75 SW36G43   30.31S
SALIDA         FAIR      56  32  39 SW8       30.07S
SUNLIGHT       RAIN      37  32  81 SW16G29   30.12R
WILKERSON PASS FAIR      41  28  60 SW21G31   30.14S
$$

COZ069>075-221400-
...SAN LUIS VALLEY/SANGRE DE CRISTO MOUNTAINS...

CITY           SKY/WX    TMP DP  RH WIND       PRES   REMARKS
ALAMOSA        FAIR      47  34  60 S13       30.02S
DEL NORTE      FAIR      47  35  64 CALM      30.05S
LA VETA PASS   FAIR      45  32  61 SW30G43   30.22S
SAGUACHE       FAIR      41  32  70 N3        30.05S
$$

COZ035-036-038>040-221400-
...NORTHERN COLORADO FRONT RANGE...

CITY           SKY/WX    TMP DP  RH WIND       PRES   REMARKS
DENVER INTL AP FAIR      49  36  61 NW9       29.81R
DMNS CITY PARK   N/A     51  37  57 E5G13     29.82R
AURORA         PTCLDY    47  36  64 NW6       29.83R
FRONT RANGE AP FAIR      48  32  53 W7        29.82R
ERIE MUNI ARPT FAIR      43  34  70 CALM      29.86R
BOULDER MUN AP FAIR      48  36  61 CALM      29.81R
CENTENNIAL     FAIR      52  34  50 N5        29.83R
BROOMFIELD     PTCLDY    52  36  54 N6        29.82R
FORT COLLINS   FAIR      49  37  63 CALM      29.81R
LONGMONT       FAIR      46  36  69 CALM      29.83R HAZE
$$

COZ041-046-047-076>085-087-088-221400-
...PIKES PEAK/PALMER DIVIDE AND SOUTHERN FOOTHILLS...

CITY           SKY/WX    TMP DP  RH WIND       PRES   REMARKS
COLO. SPRINGS  FAIR      68  33  27 S15       29.87R
A. F. ACADEMY  FAIR      58  27  30 E8        29.86R
SCHRIEVER AFB  FAIR      65  30  27 SW16G23   29.89R
CHEYENNE MTN   FAIR      64  29  27 W8G20     29.81R
ELLICOTT         N/A    N/A N/A N/A S9        29.88R
FALCON         FAIR      56  29  36 SE13      29.91R
FORT CARSON    NOT AVBL
LIMON          FAIR      49  30  48 NE5       29.83R
MONUMENT HILL  FAIR      55  28  35 S7        29.93R
CANON CITY     CLEAR     68  36  30 W14       29.83R
WALSENBURG     NOT AVBL
TRINIDAD       FAIR      71  35  26 SW18G30   29.89S
$$

COZ042>045-048>051-090-091-221400-
...NORTHEAST COLORADO...

CITY           SKY/WX    TMP DP  RH WIND       PRES   REMARKS
GREELEY ARPT   FAIR      46  37  71 W3        29.80R
AKRON          FAIR      48  35  60 N10       29.77R
BURLINGTON     FAIR      58  44  60 S16       29.79R
WRAY           FAIR      55  32  41 NW9       29.75R
YUMA           FAIR      50  30  46 NW3       29.76R
STERLING       FAIR      45  39  81 CALM      29.76R
HOLYOKE        FAIR      46  36  66 NW3       29.76R
FORT MORGAN    FAIR      46  35  66 N6        29.78R
$$

COZ086-089-092>099-221400-
...SOUTHEAST COLORADO...

CITY           SKY/WX    TMP DP  RH WIND       PRES   REMARKS
PUEBLO         FAIR      57  31  37 VRB5      29.79R
LA JUNTA       FAIR      70  39  32 SW9       29.80R
LAMAR          FAIR      68  43  40 S21G28    29.77R
SPRINGFIELD      N/A     63  51  65 S17       29.87S
$$




USA.gov is the U.S. government's official web portal to all federal, state and local government web resources and services.